Location: Acton
(51.4942°N, 0.2232°W)
Time: 02:29:08
(UTC+00:00)

Cosmos 1892 Rocket - Pass Details

Date: 18 September 2020
Orbit: 605 x 634 km, 82.5° (Epoch: 19 October)

Event Time Altitude Azimuth Distance (km) Brightness Sun altitude
Rises 20:13:47 0° 354° (N) 2,880 7.5 -19.6°
Reaches altitude 10° 20:16:08 10° 2° (N) 1,969 6.5 -19.9°
Enters shadow 20:20:07 40° 68° (ENE) 907 4.1 -20.4°
